This demonstration page uses our WeatherBlox Daily Observations layout. Learn more.

Left ArrowRight Arrow

34.74481, -87.66753

Hourly Observations for June 16, 2018

Temp ( °F °C ) Dew Point ( °F °C ) Humidity (%) Winds ( mph kmh ) Pressure ( in mb ) Visibility ( mi km ) Precip ( " mm )
12:53 am 00:53 Clear 75 23.9 72 22.2 90 90 Calm 29.98 1015 10 16 0.00 0.00
1:53 am 01:53 Clear 75 23.9 72 22.2 90 90 Calm 29.98 1015 10 16 0.00 0.00
2:53 am 02:53 Clear 73 22.8 71 21.7 94 94 Calm 29.98 1015 8 13 0.00 0.00
3:53 am 03:53 Clear 73 22.8 71 21.7 94 94 Calm 29.98 1015 10 16 0.00 0.00
4:53 am 04:53 Clear with Mist and Fog 72 22.2 70 21.1 94 94 Calm 29.99 1016 5 8 0.00 0.00
5:53 am 05:53 Sunny with Mist and Fog 72 22.2 71 21.7 97 97 Calm 30.00 1016 5 8 0.00 0.00
6:53 am 06:53 Sunny 75 23.9 72 22.2 90 90 Calm 30.02 1017 10 16 0.00 0.00
7:53 am 07:53 Sunny 79 26.1 75 23.9 88 88 Calm 30.04 1017 10 16 0.00 0.00
8:53 am 08:53 Sunny 84 28.9 76 24.4 77 77 NW 3 6 30.03 1017 10 16 0.00 0.00
9:53 am 09:53 Sunny 88 31.1 75 23.9 66 66 WNW 3 6 30.02 1017 10 16 0.00 0.00
10:53 am 10:53 Sunny 90 32.2 73 22.8 58 58 VRB 5 7 30.01 1016 10 16 0.00 0.00
11:53 am 11:53 Sunny 93 33.9 69 20.6 46 46 VRB 7 11 30.01 1016 10 16 0.00 0.00
12:53 pm 12:53 Sunny 94 34.4 67 19.4 41 41 E 9 15 30.00 1016 10 16 0.00 0.00
1:53 pm 13:53 Mostly Sunny 94 34.4 67 19.4 41 41 ESE 3 6 29.99 1016 10 16 0.00 0.00
2:53 pm 14:53 Sunny 95 35 65 18.3 37 37 ESE 6 9 29.98 1015 10 16 0.00 0.00
3:53 pm 15:53 Sunny 95 35 63 17.2 35 35 ENE 9 15 29.97 1015 10 16 0.00 0.00
4:53 pm 16:53 Sunny 94 34.4 65 18.3 38 38 ENE 7 11 29.97 1015 10 16 0.00 0.00
5:53 pm 17:53 Sunny 93 33.9 65 18.3 40 40 ENE 7 11 29.96 1015 10 16 0.00 0.00
6:53 pm 18:53 Sunny 92 33.3 66 18.9 43 43 ENE 6 9 29.97 1015 10 16 0.00 0.00
7:53 pm 19:53 Sunny 86 30 69 20.6 57 57 NE 5 7 29.99 1016 10 16 0.00 0.00
8:53 pm 20:53 Clear 81 27.2 72 22.2 74 74 E 3 6 30.00 1016 10 16 0.00 0.00
9:53 pm 21:53 Clear 82 27.8 70 21.1 67 67 S 9 15 30.03 1017 10 16 0.00 0.00
10:53 pm 22:53 Clear 80 26.7 67 19.4 64 64 S 3 6 30.04 1017 10 16 0.00 0.00
11:53 pm 23:53 Clear 75 23.9 68 20 79 79 Calm 30.05 1018 10 16 0.00 0.00

Powered by AerisWeather